Location: Lucerne Valley
(34.4439°N, 116.9669°E)
Time: 07:53:27
(UTC-08:00)

Envisat - Pass Details

Date: 08 October 2017
Orbit: 764 x 766 km, 98.2° (Epoch: 14 December)

Event Time Altitude Azimuth Distance (km) Brightness Sun altitude
Exits shadow 04:19:49 26° 47° (NE) 1,489 4.1 -19.9°
Drops below altitude 10° 04:22:57 10° 12° (NNE) 2,307 5.4 -20.6°
Sets 04:25:31 0° 1° (N) 3,237 6.3 -21.1°
